Flag for Uzbekistan Weather past 2 weeks in Tashkent, Uzbekistan

Now
59 °F

Clear.


Feels Like: 58 °F
Forecast: 42 / 65 °F
Wind: 7 mph from North

Location: Tashkent

Current Time: Apr 2, 2015 at 2:45:09 PM

Latest Report: Apr 2, 2015 at 2:00 PM


Visibility: 4 mi

Pressure: 29.95 "Hg

Humidity: 48%

Dew point: 39 °F

Location of TashkentLocation

Historic Weather in Tashkent — Graph

°F

Tashkent temperature yesterday

Maximum temperature yesterday: 43 °F (at 12:30 PM)
Minimum temperature yesterday: 34 °F (at 2:30 AM)
Average temperature yesterday: 40 °F

Past Weeks' High & Low Weather Summary

 TemperatureHumidityPressure
High77 °F (Mar 23, 1:30 PM)100% (Mar 20, 8:00 AM)30.48 "Hg (Mar 20, 8:00 AM)
Low19 °F (Mar 30, 6:30 AM)23% (Mar 21, 3:00 PM)29.53 "Hg (Mar 23, 11:00 PM)
Average50 °F63%30.14 "Hg
* Reported Mar 18 1:00 PM — Apr 2 1:30 PM, Tashkent, Weather by CustomWeather, © 2015

Note: Actual official high and low records may vary slightly from our data, if they occured in-between our weather recording intervals... More about our weather records

Advertising

Tashkent weather history for previous 24 hours

 ConditionsComfort  
Time TempWeatherWind HumidityBarometerVisibility
1:30 PM
Thu, Apr 2
57 °FClear.9 mph51%29.98 "Hg4 mi
1:00 PM57 °FClear.7 mph51%29.98 "Hg4 mi
12:30 PM57 °FClear.5 mph48%29.98 "Hg4 mi
12:00 PM55 °FClear.3 mph55%29.98 "Hg4 mi
11:30 AM54 °FClear.5 mph58%30.01 "Hg3 mi
11:00 AM50 °FClear.3 mph67%30.01 "Hg3 mi
10:30 AM50 °FClear.2 mph67%30.04 "Hg3 mi
10:00 AM48 °FFog.2 mph71%30.04 "Hg2 mi
9:30 AM46 °FFog.2 mph76%30.07 "Hg2 mi
9:00 AM45 °FFog.3 mph81%30.07 "Hg2 mi
8:30 AM43 °FFog.2 mph87%30.07 "Hg2 mi
8:00 AM41 °FFog.3 mph93%30.07 "Hg2 mi
7:30 AM41 °FFog.3 mph93%30.07 "Hg2 mi
7:00 AM41 °FFog.5 mph93%30.07 "Hg2 mi
6:30 AM41 °FFog.3 mph87%30.07 "Hg2 mi
6:00 AM41 °FFog.5 mph87%30.07 "Hg2 mi
5:30 AM41 °FFog.5 mph87%30.07 "Hg2 mi
5:00 AM41 °FFog.5 mph87%30.07 "Hg2 mi
4:30 AM41 °FFog.3 mph87%30.07 "Hg2 mi
4:00 AM41 °FFog.5 mph87%30.04 "Hg2 mi
3:30 AM41 °FFog.3 mph87%30.04 "Hg2 mi
3:00 AM41 °FFog.3 mph87%30.04 "Hg2 mi
2:30 AM41 °FFog.5 mph87%30.04 "Hg2 mi
2:00 AM41 °FFog.3 mph87%30.04 "Hg2 mi
1:30 AM41 °FFog.3 mph87%30.04 "Hg2 mi
1:00 AM41 °FFog.6 mph87%30.04 "Hg2 mi
12:30 AM41 °FFog.3 mph87%30.04 "Hg2 mi
12:00 AM41 °FFog.2 mph81%30.04 "Hg2 mi
11:30 PM
Wed, Apr 1
41 °FFog.2 mph81%30.04 "Hg2 mi
11:00 PM41 °FFog.1 mph87%30.04 "Hg2 mi
10:30 PM41 °FFog.3 mph87%30.04 "Hg2 mi
10:00 PM41 °FFog.5 mph81%30.04 "Hg2 mi
9:30 PM41 °FFog.3 mph81%30.04 "Hg2 mi
9:00 PM41 °FFog.No wind81%30.04 "Hg2 mi
8:30 PM41 °FFog.3 mph81%30.04 "Hg2 mi
8:00 PM41 °FSprinkles. Fog.6 mph87%30.04 "Hg2 mi
7:30 PM41 °FSprinkles. Fog.3 mph87%30.01 "Hg2 mi
7:00 PM41 °FSprinkles. Fog.2 mph87%30.01 "Hg2 mi
6:30 PM41 °FSprinkles. Fog.3 mph81%30.01 "Hg2 mi
6:00 PM43 °FSprinkles. Fog.3 mph76%30.01 "Hg2 mi
5:30 PM43 °FMostly cloudy.5 mph76%29.98 "Hg3 mi
5:00 PM43 °FOvercast.3 mph71%29.98 "Hg3 mi
4:30 PM43 °FOvercast.5 mph71%29.98 "Hg3 mi
4:00 PM43 °FLight rain. Overcast.6 mph66%29.95 "Hg3 mi
3:30 PM43 °FOvercast.2 mph66%29.92 "Hg3 mi
3:00 PM43 °FFog.7 mph71%29.95 "Hg2 mi
2:30 PM43 °FFog.5 mph76%29.92 "Hg2 mi
2:00 PM43 °FFog.3 mph76%29.92 "Hg2 mi
Weather by CustomWeather, © 2015

See weather overviewHow to use our weather pages